User: anonymous   Login
Location: Marcé
(47.5801°N, 0.3280°W)
Time: 05:18:23
(UTC+01:00)
Language:

FENGYUN 1C DEB - Orbit

View from above orbital plane
View from above orbital plane
View from above satellite
View from above satellite

Ground track
Ground track

The orbit data is extracted from the following two-line orbital elements,

1 30966U 99025BBG 23078.45375659  .00143307  00000-0  84998-2 0  9991
2 30966  99.0851 322.8639 0042553 120.4099  52.8246 15.09917740853719
Epoch (UTC): 19 March 2023 10:53:24
Eccentricity: 0.0042553
inclination: 99.0851°
perigee height: 507 km
apogee height: 566 km
right ascension of ascending node: 322.8639°
argument of perigee: 120.4099°
revolutions per day: 15.09917740
mean anomaly at epoch: 52.8246°
orbit number at epoch: 85371

The dashed part of the orbit path shows where the satellite is in the earth's shadow,  

DLR